Theta_e
315 313 315 314 315 315 314 312 311 312 312 312 315 316 317 317 313 316 316 317 318 318 318 318 317 315 313 312 311 310 309 310 309 308 308 308 307 306 305 304 303 303
313 312 310 312 311 310 312 312 311 311 311 311 311 311 310 310 311 312 313 315 316 317 317 317 316 316 315 313 311 311 309 308 308 307 307 305 305 305 304 302 301 301
311 310 311 311 312 311 311 309 309 309 310 310 309 309 310 309 310 310 311 312 313 314 314 314 314 314 314 312 311 310 309 307 305 303 303 303 303 301 300 298 299 298
309 310 311 311 310 310 308 308 307 306 304 307 309 310 310 309 310 309 309 306 310 310 310 311 312 312 311 310 309 307 306 305 305 302 301 299 297 297 298 297 297 298
309 309 308 309 307 307 307 309 309 307 307 308 305 305 306 307 307 306 305 305 306 305 304 307 308 308 307 306 305 305 302 302 299 298 298 298 295 294 296 296 296 295
305 307 307 307 307 307 307 308 308 307 307 303 306 303 305 306 303 303 301 301 300 301 299 299 300 301 300 301 300 302 301 300 298 297 298 298 296 293 295 295 295 295
305 305 305 304 304 305 307 306 305 304 305 306 300 301 298 297 297 299 299 298 298 297 298 296 296 293 292 294 296 298 297 297 295 295 297 297 294 293 291 294 295 296
303 301 304 302 303 302 304 305 302 301 301 297 299 296 295 297 296 295 293 294 295 294 293 293 293 297 291 292 293 293 292 292 292 292 294 294 291 293 292 293 295 296
300 300 301 299 301 297 297 298 297 295 294 300 297 295 292 293 294 293 293 292 292 291 295 291 294 293 289 290 291 292 293 290 290 291 293 294 294 295 296 295 295 294
298 297 297 296 298 295 296 295 295 294 293 295 294 292 292 291 292 292 291 290 292 291 291 291 291 290 289 288 292 291 290 292 290 291 293 295 295 296 295 295 295 295
294 292 295 294 295 293 294 293 292 292 291 294 291 291 290 289 290 288 289 291 291 291 290 289 288 287 289 287 287 288 290 291 292 293 294 294 295 296 294 295 295 295
292 291 292 293 292 292 292 292 291 291 290 289 291 293 288 287 289 289 288 289 288 288 287 287 287 287 288 287 287 288 289 290 291 292 293 294 295 295 296 296 296 295
290 290 290 291 291 291 290 291 290 289 289 289 288 288 289 288 288 288 287 287 287 288 287 287 287 287 287 286 286 287 287 288 289 289 290 291 292 292 293 293 294 294
288 288 288 288 288 288 289 288 287 287 287 287 288 289 288 287 287 288 287 287 287 288 287 287 287 286 286 286 287 288 287 287 287 288 287 286 286 287 287 288 290 291
287 287 287 288 288 288 288 288 287 287 287 287 287 287 287 286 286 287 287 287 286 286 286 285 286 287 288 289 289 288 286 287 287 288 287 286 286 285 285 285 285 285
288 287 288 288 289 288 287 287 287 287 287 288 287 286 287 287 287 286 286 286 287 285 284 285 285 285 286 290 292 288 288 287 287 286 286 286 285 285 286 285 285 285
289 288 288 288 287 287 287 288 288 287 287 287 287 286 286 286 286 287 285 285 285 286 287 286 286 286 289 293 294 294 290 288 287 286 286 285 285 284 285 285 285 286
287 288 288 287 287 287 287 286 287 287 287 287 287 287 286 286 286 285 285 285 286 285 285 286 286 288 292 292 293 293 293 288 286 286 285 285 284 284 284 284 285 286
287 287 287 286 286 286 286 287 287 287 286 287 286 285 285 286 285 286 285 285 286 286 286 284 284 288 291 292 292 292 293 290 286 286 285 284 284 284 284 284 284 285
286 286 286 285 285 286 286 286 286 285 284 283 284 285 286 286 285 285 285 285 284 284 284 283 284 288 291 291 291 292 293 291 284 285 284 284 285 284 284 284 285 285
285 285 285 285 285 285 285 284 284 284 284 284 284 285 286 286 285 284 284 284 283 283 284 284 285 290 290 290 291 291 292 289 284 284 284 284 284 284 285 285 285 285
284 284 284 284 284 284 284 283 283 283 283 283 283 283 283 284 283 283 283 283 283 283 284 284 285 289 290 290 291 291 290 283 283 283 282 283 284 285 284 285 285 285
283 283 283 283 283 283 283 282 282 282 283 282 283 283 283 283 283 283 282 283 283 283 284 284 285 287 289 290 291 291 287 283 281 282 283 284 285 284 284 285 285 285
282 283 283 282 282 282 282 282 282 282 282 282 283 282 282 282 282 283 283 283 284 284 284 284 284 286 289 289 290 289 287 285 285 285 285 285 285 285 285 284 284 285
282 282 282 282 282 281 281 281 281 281 281 281 282 282 282 282 283 284 284 284 284 284 283 283 283 284 288 288 288 288 286 285 285 284 284 284 284 284 285 285 285 285
281 281 281 281 281 281 281 281 281 281 281 282 282 282 283 283 283 283 283 282 282 282 282 282 282 283 285 287 287 287 287 285 284 283 283 283 283 283 283 283 283 283
Wind_Speed
8 7 9 9 9 8 8 8 7 8 7 6 8 7 8 6 4 7 7 7 7 7 7 7 8 7 6 5 5 5 5 7 6 5 6 7 7 6 7 7 6 6
9 8 7 6 6 6 6 7 7 7 7 7 6 5 5 5 6 7 7 7 7 8 7 7 7 7 7 6 6 6 6 5 7 5 7 7 7 7 8 7 7 6
8 8 9 9 9 8 8 6 5 6 6 6 5 5 6 5 6 6 6 7 7 7 7 7 6 6 7 7 6 7 7 7 7 5 6 7 6 7 7 7 6 6
8 9 9 8 7 7 6 6 5 5 4 5 6 6 6 6 6 6 6 6 6 6 6 6 7 6 6 7 6 6 7 7 7 6 7 5 5 6 7 6 6 6
8 7 6 5 5 5 5 6 7 6 6 6 4 4 5 5 5 5 5 5 6 6 5 6 6 6 6 6 6 6 6 6 5 5 6 6 5 5 6 5 5 6
4 5 5 5 5 6 6 6 6 5 5 5 6 4 5 5 5 6 6 6 6 6 5 5 5 5 5 5 5 6 6 6 5 5 6 7 5 5 4 5 5 6
5 5 5 4 4 5 5 5 5 5 5 5 4 5 5 5 5 6 6 6 5 5 6 5 5 5 4 4 5 5 5 6 4 5 7 6 4 5 4 4 5 6
5 4 5 4 5 5 5 5 5 5 5 4 5 4 5 5 5 5 4 4 5 4 4 4 4 4 4 4 4 4 5 4 4 4 5 5 3 4 4 4 5 6
4 5 5 5 5 5 5 5 4 4 4 5 4 4 3 4 5 5 5 4 4 4 4 3 4 4 4 4 5 4 5 4 4 4 5 5 5 6 5 5 5 6
5 4 5 5 5 4 4 4 3 4 3 4 4 4 4 2 2 3 3 3 3 2 2 2 1 2 2 3 4 4 4 4 4 4 5 5 6 6 5 5 7 6
4 4 4 4 4 3 4 3 4 4 3 4 4 3 3 3 2 3 3 3 4 4 3 2 1 1 1 2 3 3 4 4 3 4 4 5 5 5 5 5 5 6
3 3 4 4 4 4 4 4 4 4 4 2 3 4 3 3 4 3 3 3 2 2 2 2 2 2 1 1 1 1 1 3 3 4 4 4 4 4 5 5 5 6
4 4 4 4 4 4 4 3 3 3 3 3 3 4 4 3 3 3 3 3 3 3 3 3 2 2 1 1 0 0 1 2 2 3 3 3 3 3 3 3 4 5
4 4 4 4 3 3 4 4 4 4 4 3 3 4 4 3 4 4 3 4 3 3 2 2 2 1 0 0 0 0 0 1 1 2 3 3 3 3 3 4 4 4
4 3 4 5 4 4 4 4 5 5 5 5 5 5 5 4 4 4 4 3 3 2 2 2 2 1 0 0 1 1 0 1 1 2 2 3 3 3 3 3 3 4
5 4 5 5 5 5 5 5 5 5 5 6 5 5 5 4 4 4 4 3 2 2 2 2 3 2 3 3 2 1 2 1 2 2 2 3 3 4 5 4 4 4
5 5 5 6 5 6 5 6 5 5 6 6 5 5 5 4 5 5 4 2 3 3 4 3 3 3 6 5 6 6 3 2 2 3 2 2 2 3 5 6 4 4
5 6 7 6 6 6 5 5 5 6 6 5 5 5 4 5 5 3 3 3 4 3 4 4 4 6 8 8 8 8 7 3 2 2 3 2 2 3 4 4 5 5
5 7 6 6 6 5 5 6 7 6 5 5 5 3 4 5 4 5 4 4 4 4 5 4 4 6 6 8 8 8 8 6 3 1 2 3 3 3 4 4 5 5
6 7 7 6 5 7 7 7 7 6 4 3 4 4 5 5 5 6 5 5 4 3 3 3 4 6 7 8 8 8 7 6 3 3 3 3 4 4 4 5 5 5
6 6 7 7 7 7 7 6 6 5 5 4 5 5 6 6 5 5 4 4 4 3 4 4 4 7 8 8 7 6 6 5 3 3 3 3 3 3 3 4 4 5
7 8 8 7 7 7 7 6 6 5 5 4 5 5 5 5 5 5 5 4 3 3 5 6 6 10 9 8 7 6 5 3 3 4 3 3 3 2 2 3 3 4
7 8 7 7 6 7 7 6 6 5 5 3 7 6 6 5 4 4 3 4 4 4 6 6 7 10 11 11 11 9 5 5 4 3 3 3 3 2 2 2 3 3
5 7 7 7 7 7 7 6 5 4 5 3 5 5 6 4 3 5 5 5 7 7 6 7 7 11 14 15 15 14 8 6 4 4 4 4 4 3 2 2 2 5
5 6 6 7 8 7 6 6 5 5 4 4 4 5 5 4 4 6 7 7 7 8 10 9 7 9 15 16 17 16 11 6 6 6 6 6 5 5 4 4 4 4
5 6 6 7 8 7 6 6 4 5 4 5 5 5 6 6 6 7 8 7 6 7 8 8 8 7 11 17 17 17 16 8 6 7 8 7 6 5 5 4 4 4
Wind_Direction
205 196 203 201 206 203 200 199 198 198 202 198 207 210 210 207 184 197 203 200 203 213 212 206 191 194 193 192 194 203 208 215 220 206 212 215 222 217 224 225 224 226
206 200 199 197 201 203 207 200 197 195 199 199 204 196 200 186 203 194 200 203 201 208 211 212 207 204 203 204 204 209 217 215 225 205 216 217 219 213 226 226 228 231
199 198 196 199 200 200 202 195 190 198 198 202 197 198 200 195 195 202 202 201 202 205 207 210 209 205 203 204 207 213 219 220 225 210 214 221 217 219 230 227 232 227
199 199 199 202 197 196 185 182 199 197 193 200 210 206 199 201 200 200 204 202 204 209 211 210 210 207 203 203 202 212 216 218 216 202 215 225 222 219 225 215 227 231
195 195 196 196 194 182 174 191 201 197 200 210 207 201 202 205 204 206 205 209 206 213 208 212 212 209 204 206 200 213 214 218 212 197 213 224 222 208 223 205 221 230
193 189 188 186 184 178 188 200 203 198 207 208 213 194 207 205 201 203 204 206 211 208 208 209 208 210 199 204 201 213 211 215 210 201 216 224 221 210 213 206 218 229
187 180 187 178 178 188 192 200 204 203 204 211 183 205 194 193 195 200 197 199 195 197 195 195 195 200 197 191 200 214 217 215 208 202 218 229 212 225 219 213 221 231
188 185 179 175 182 188 200 202 203 201 196 161 185 198 168 176 182 180 173 171 174 180 184 181 184 185 182 179 198 213 231 215 207 203 217 228 203 226 221 221 225 235
176 183 177 185 187 194 198 200 196 188 159 163 165 158 156 156 163 160 161 156 155 166 166 172 186 194 179 181 200 208 222 227 213 206 213 219 219 225 224 226 235 240
180 181 177 184 192 193 186 177 152 147 151 149 158 142 155 148 135 146 137 144 153 147 165 181 179 209 202 190 209 205 217 223 211 214 220 224 224 227 224 220 232 243
179 170 175 181 185 167 168 148 147 139 149 144 130 145 137 124 88 111 125 138 161 176 166 153 168 160 182 219 231 213 212 220 216 213 221 225 228 229 224 222 231 235
163 143 162 171 161 158 161 158 140 142 136 114 138 124 101 99 125 103 128 142 123 114 116 115 125 142 167 195 208 191 206 230 228 224 228 228 233 231 228 226 229 237
154 162 155 156 162 161 144 133 128 115 110 108 95 118 122 106 84 89 48 106 111 116 124 138 128 126 122 130 135 156 182 202 224 242 249 250 249 247 250 247 247 249
162 154 149 147 130 113 106 98 97 90 90 91 88 89 100 106 109 101 80 86 112 106 118 113 107 86 82 102 123 155 142 206 204 235 259 270 273 273 266 259 258 261
126 114 111 110 108 101 95 92 90 95 90 82 79 81 77 86 93 106 100 78 55 72 70 61 82 79 135 182 336 322 165 276 265 265 266 277 289 289 286 280 281 275
107 100 99 100 94 92 96 96 93 89 86 81 78 84 87 89 82 66 76 89 77 41 45 44 28 10 350 326 283 254 292 303 326 309 300 307 313 316 310 306 287 283
95 93 92 87 94 95 94 93 92 91 88 88 83 76 77 75 80 72 69 75 90 59 30 20 5 360 351 350 347 347 355 345 314 305 311 295 293 289 297 303 301 287
90 90 86 86 87 89 91 91 88 84 82 85 83 78 74 76 70 89 74 49 52 50 37 17 3 358 3 2 0 359 358 356 348 319 318 321 306 298 290 295 304 311
86 89 89 84 84 89 87 81 80 78 77 79 86 107 86 74 70 63 56 48 52 44 25 14 9 355 357 5 8 8 5 15 27 15 336 319 322 312 310 313 316 318
92 95 93 94 92 84 82 81 80 84 84 88 96 78 82 81 66 65 56 50 49 53 39 30 27 3 19 17 16 16 16 33 39 29 12 356 345 333 329 329 325 330
99 101 98 89 83 85 86 85 90 88 77 71 78 80 83 82 77 73 60 62 52 58 69 52 29 19 22 22 21 22 29 53 49 41 31 14 350 340 331 329 327 328
101 94 87 90 93 91 90 86 81 85 93 92 89 80 72 77 60 68 69 67 71 77 77 60 31 27 25 29 28 30 50 55 67 56 46 26 357 349 335 323 326 327
95 104 105 103 103 99 94 91 92 85 74 67 86 74 76 73 80 80 77 77 70 64 68 67 47 28 35 39 38 42 52 51 61 59 51 46 22 358 346 337 334 337
91 104 108 105 99 97 96 89 81 72 66 44 91 97 85 82 90 84 68 63 60 57 55 66 52 30 38 41 42 37 39 45 40 52 51 34 24 355 343 305 304 306
86 93 99 101 96 92 92 92 83 84 80 79 85 93 90 89 76 77 73 60 59 60 50 54 46 35 35 38 38 37 34 27 29 25 29 16 359 349 340 334 323 320
76 86 85 91 96 92 84 83 89 88 87 96 84 83 87 75 69 72 74 65 56 53 48 45 42 31 30 32 32 30 32 34 24 22 13 360 352 342 342 341 334 321